This demonstration page uses our WeatherBlox Daily Observations layout. Learn more.

Left ArrowRight Arrow

Hourly Observations for May 21, 2020

Temp ( °F °C ) Dew Point ( °F °C ) Humidity (%) Winds ( mph kmh ) Pressure ( in mb ) Visibility ( mi km ) Precip ( " mm )
12:53 am 00:53 Mostly Cloudy 61 16 54 12 77 77 SE 18 30 29.85 1011 10 16 0.00 0.00
12:56 am 00:56 Mostly Cloudy 60 15.6 54 12.2 80 80 SE 17 28 29.85 1011 10 16 0.00 0.00
1:56 am 01:56 Cloudy 60 15.6 54 12.2 80 80 SE 18 30 29.86 1011 10 16 0.00 0.00
2:56 am 02:56 Cloudy 60 15.6 54 12.2 80 80 SSE 15 24 29.87 1012 10 16 0.00 0.00
3:56 am 03:56 Cloudy 60 15.6 55 12.8 84 84 SE 14 22 29.90 1013 10 16 0.00 0.00
4:56 am 04:56 Cloudy 59 15 55 12.8 87 87 SE 10 17 29.92 1013 10 16 0.00 0.00
5:27 am 05:27 Cloudy with Light Rain 57 14 55 13 94 94 SE 10 17 29.91 1013 10 16 0.00 0.00
5:56 am 05:56 Cloudy 58 14.4 55 12.8 90 90 SE 13 20 29.89 1012 10 16 0.00 0.00
6:15 am 06:15 Cloudy 57 14 55 13 94 94 ESE 13 20 29.89 1012 10 16 0.00 0.00
6:25 am 06:25 Cloudy with Light Rain 57 14 55 13 94 94 ESE 15 24 29.88 1012 10 16 0.00 0.00
6:34 am 06:34 Cloudy with Light Rain 57 14 55 13 94 94 ESE 15 24 29.88 1012 10 16 0.00 0.00
6:56 am 06:56 Cloudy 58 14.4 56 13.3 93 93 ESE 16 26 29.86 1011 10 16 0.00 0.00
7:17 am 07:17 Cloudy 57 14 55 13 94 94 ESE 18 30 29.86 1011 10 16 0.00 0.00
7:56 am 07:56 Cloudy with Light Rain 58 14.4 56 13.3 93 93 SE 20 31 29.84 1011 10 16 0.02 0.51
8:28 am 08:28 Cloudy with Light Rain 57 14 55 13 94 94 SE 14 22 29.87 1012 10 16 0.01 0.25
8:56 am 08:56 Cloudy 57 13.9 56 13.3 96 96 SE 10 17 29.90 1012 10 16 0.01 0.25
9:03 am 09:03 Cloudy with Nearby Thunderstorms 57 14 55 13 94 94 ESE 9 15 29.89 1012 9 14 0.00 0.00
9:40 am 09:40 Cloudy with Thunderstorms 57 14 55 13 94 94 ESE 13 20 29.88 1012 8 13 0.09 2.29
9:47 am 09:47 Cloudy with Nearby Thunderstorms 57 14 57 14 100 100 ESE 13 20 29.87 1012 8 13 0.10 2.54
9:56 am 09:56 Cloudy with Nearby Thunderstorms 58 14.4 57 13.9 97 97 ESE 13 20 29.88 1012 9 14 0.10 2.54
10:12 am 10:12 Cloudy with Thunderstorms 57 14 57 14 100 100 SE 10 17 29.88 1012 9 14 0.00 0.00
10:34 am 10:34 Cloudy with Strong Thunderstorms 57 14 57 14 100 100 ESE 16 26 29.86 1011 2 3 0.24 6.10
10:45 am 10:45 Cloudy with Thunderstorms 57 14 57 14 100 100 SSE 10 17 29.89 1012 4 6 0.30 7.62
10:56 am 10:56 Cloudy with Strong Thunderstorms 58 14.4 57 13.9 97 97 ESE 12 19 29.88 1012 3 5 0.35 8.89
11:25 am 11:25 Cloudy with Nearby Thunderstorms 57 14 57 14 100 100 ESE 9 15 29.87 1012 3 4 0.19 4.83
11:27 am 11:27 Cloudy with Nearby Thunderstorms 57 14 57 14 100 100 ESE 12 19 29.87 1012 3 4 0.20 5.08
11:35 am 11:35 Cloudy with Thunderstorms 57 14 57 14 100 100 SE 14 22 29.88 1012 4 6 0.24 6.10
11:56 am 11:56 Cloudy with Thunderstorms 59 15 57 13.9 93 93 SE 16 26 29.88 1012 6 10 0.32 8.13
12:56 pm 12:56 Cloudy with Thunderstorms 59 15 58 14.4 96 96 SSE 13 20 29.89 1012 6 10 0.20 5.08
1:56 pm 13:56 Cloudy with Thunderstorms 59 15 58 14.4 96 96 SE 16 26 29.85 1011 6 10 0.28 7.11
2:11 pm 14:11 Cloudy with Thunderstorms 59 15 59 15 100 100 SE 17 28 29.85 1011 7 11 0.03 0.76
2:33 pm 14:33 Cloudy with Thunderstorms 61 16 59 15 94 94 SE 15 24 29.84 1010 7 11 0.13 3.30
2:56 pm 14:56 Cloudy with Strong Thunderstorms 59 15 58 14.4 96 96 SSE 18 30 29.86 1011 2 3 0.35 8.89
3:08 pm 15:08 Cloudy with Strong Thunderstorms 59 15 57 14 94 94 SE 17 28 29.85 1011 2 3 0.19 4.83
3:12 pm 15:12 Cloudy with Thunderstorms 59 15 57 14 94 94 SE 15 24 29.86 1011 3 5 0.21 5.33
3:31 pm 15:31 Cloudy with Strong Thunderstorms 59 15 59 15 100 100 SE 16 26 29.86 1011 2 3 0.00 0.00
3:47 pm 15:47 Cloudy with Nearby Thunderstorms 59 15 59 15 100 100 ESE 17 28 29.86 1011 3 5 0.56 14.22
3:56 pm 15:56 Cloudy with Nearby Thunderstorms 60 15.6 59 15 96 96 ESE 13 20 29.87 1011 4 6 0.60 15.24
4:18 pm 16:18 Cloudy with Rain 61 16 59 15 94 94 E 15 24 29.85 1011 3 5 0.12 3.05
4:22 pm 16:22 Cloudy with Thunderstorms 61 16 59 15 94 94 E 14 22 29.85 1011 4 6 0.13 3.30
4:54 pm 16:54 Cloudy with Rain 61 16 59 15 94 94 E 16 26 29.84 1010 4 6 0.30 7.62
4:56 pm 16:56 Cloudy with Light Rain 60 15.6 59 15 96 96 E 16 26 29.86 1011 4 6 0.30 7.62
5:14 pm 17:14 Cloudy with Rain 61 16 59 15 94 94 E 14 22 29.85 1011 2 3 0.07 1.78
5:17 pm 17:17 Cloudy with Nearby Thunderstorms 61 16 59 15 94 94 E 15 24 29.85 1011 2 3 0.09 2.29
5:32 pm 17:32 Cloudy with Light Rain 61 16 59 15 94 94 E 13 20 29.84 1010 1 2 0.11 2.79
5:46 pm 17:46 Cloudy with Light Rain 61 16 59 15 94 94 E 14 22 29.84 1010 2 2 0.12 3.05
5:56 pm 17:56 Cloudy with Light Rain 60 15.6 59 15 96 96 E 12 19 29.86 1011 1 2 0.13 3.30
6:01 pm 18:01 Cloudy with Light Rain 61 16 59 15 94 94 E 9 15 29.84 1010 1 2 0.00 0.00
6:25 pm 18:25 Cloudy with Light Rain 61 16 61 16 100 100 E 9 15 29.84 1010 3 4 0.02 0.51
6:35 pm 18:35 Cloudy with Light Rain 61 16 61 16 100 100 E 12 19 29.83 1010 3 5 0.00 0.00
6:46 pm 18:46 Cloudy with Light Rain 61 16 61 16 100 100 E 13 20 29.84 1010 6 10 0.05 1.27
6:56 pm 18:56 Cloudy with Light Rain 61 16.1 60 15.6 97 97 ESE 12 19 29.86 1011 9 14 0.05 1.27
7:56 pm 19:56 Cloudy 62 16.7 60 15.6 93 93 SE 18 30 29.85 1011 10 16 0.01 0.25
8:06 pm 20:06 Cloudy 63 17 61 16 94 94 SE 17 28 29.83 1010 10 16 0.00 0.00
8:56 pm 20:56 Cloudy with Light Rain 61 16.1 60 15.6 97 97 SE 21 33 29.86 1011 7 11 0.01 0.25
9:56 pm 21:56 Cloudy 61 16.1 60 15.6 97 97 SE 15 24 29.87 1012 9 14 0.00 0.00
10:56 pm 22:56 Cloudy 61 16.1 60 15.6 97 97 SE 10 17 29.89 1012 9 14 0.00 0.00
11:32 pm 23:32 Cloudy 61 16 61 16 100 100 ESE 13 20 29.88 1012 10 16 0.00 0.00
11:56 pm 23:56 Cloudy 61 16.1 60 15.6 97 97 ESE 14 22 29.89 1012 N/A 0.00 0.00

Powered by AerisWeather